This demonstration page uses our WeatherBlox Daily Observations layout. Learn more.

Left ArrowRight Arrow

Hourly Observations for May 17, 2022

Temp ( °F °C ) Dew Point ( °F °C ) Humidity (%) Winds ( mph kmh ) Pressure ( in mb ) Visibility ( mi km ) Precip ( " mm )
12:53 am 00:53 Clear 86 30 42 5.6 21 21 SSE 16 26 29.70 1006 10 16 0.00 0.00
1:53 am 01:53 Clear 84 28.9 39 3.9 20 20 SE 22 35 29.69 1005 10 16 0.00 0.00
2:53 am 02:53 Clear 86 30 39 3.9 19 19 SE 24 39 29.66 1005 9 14 0.00 0.00
3:53 am 03:53 Clear 81 27.2 46 7.8 29 29 SSE 14 22 29.68 1005 10 16 0.00 0.00
4:53 am 04:53 Clear 80 26.7 48 8.9 33 33 S 8 13 29.70 1006 10 16 0.00 0.00
5:53 am 05:53 Clear 79 26.1 48 8.9 34 34 SSE 12 19 29.69 1005 10 16 0.00 0.00
6:53 am 06:53 Mostly Clear 80 26.7 48 8.9 33 33 SSE 17 28 29.69 1006 10 16 0.00 0.00
7:53 am 07:53 Sunny 79 26.1 50 10 36 36 SE 21 33 29.70 1006 10 16 0.00 0.00
8:53 am 08:53 Sunny 81 27.2 52 11.1 37 37 SSE 20 31 29.72 1007 10 16 0.00 0.00
9:53 am 09:53 Sunny 84 28.9 50 10 31 31 SSE 20 31 29.72 1007 10 16 0.00 0.00
10:53 am 10:53 Sunny 90 32.2 43 6.1 19 19 SSE 17 28 29.72 1007 10 16 0.00 0.00
11:53 am 11:53 Sunny 94 34.4 27 -2.8 9 9 WSW 9 15 29.71 1006 10 16 0.00 0.00
12:53 pm 12:53 Sunny 97 36.1 14 -10 5 5 SW 12 19 29.70 1006 10 16 0.00 0.00
1:53 pm 13:53 Sunny 99 37.2 12 -11.1 4 4 VRB 7 11 29.67 1005 10 16 0.00 0.00
2:53 pm 14:53 Sunny 102 38.9 15 -9.4 4 4 WSW 15 24 29.65 1004 10 16 0.00 0.00
3:53 pm 15:53 Sunny 105 40.6 22 -5.6 5 5 SSW 18 30 29.63 1003 10 16 0.00 0.00
4:53 pm 16:53 Sunny 104 40 22 -5.6 5 5 WSW 23 37 29.60 1002 10 16 0.00 0.00
5:53 pm 17:53 Sunny 103 39.4 18 -7.8 5 5 WSW 22 35 29.59 1002 10 16 0.00 0.00
6:53 pm 18:53 Sunny 101 38.3 16 -8.9 4 4 W 18 30 29.59 1002 10 16 0.00 0.00
7:53 pm 19:53 Sunny 99 37.2 15 -9.4 5 5 W 22 35 29.59 1002 10 16 0.00 0.00
8:53 pm 20:53 Clear 94 34.4 13 -10.6 5 5 W 15 24 29.62 1003 10 16 0.00 0.00
9:53 pm 21:53 Clear 89 31.7 10 -12.2 5 5 W 12 19 29.64 1004 10 16 0.00 0.00
10:53 pm 22:53 Clear 87 30.6 6 -14.4 4 4 W 14 22 29.66 1004 10 16 0.00 0.00
11:53 pm 23:53 Clear 79 26.1 7 -13.9 6 6 SSE 12 19 29.70 1006 10 16 0.00 0.00

Powered by AerisWeather